Theta_e
303 292 290 290 293 295 297 297 297 297 297 296 294 293 292 292 293 296 296 295 295 292 291 292 293 293 294 296 297 298 299 298 298 297 297 297 298 299 299 298 299 299 299 299 299 299 299 299 298 297 296 296 295 294 294 294 294 294 294 293 293 293 294 293 292 292 291 290 289 289 289 289 289 290 289 290 290 290 290 291 291 291 290 290 289 289
304 293 292 295 297 297 298 298 298 297 297 295 294 292 292 292 291 295 295 292 293 291 289 292 292 293 294 295 296 297 297 296 297 297 297 298 298 299 298 298 298 299 301 299 297 298 298 297 297 295 295 295 293 293 293 293 294 293 294 293 293 293 293 293 292 292 291 291 290 290 289 289 289 289 289 288 289 290 291 291 290 290 289 290 289 289
293 291 295 298 299 299 298 298 297 296 295 294 292 291 289 291 294 296 296 291 292 290 288 291 290 292 294 295 296 297 297 298 298 298 298 298 298 298 298 298 297 298 296 296 297 297 296 296 296 294 294 294 294 293 293 293 293 293 293 293 293 293 292 292 292 292 291 291 291 291 290 290 289 289 290 289 289 290 290 290 290 290 290 290 289 288
289 293 297 300 299 297 296 296 295 294 295 292 290 287 287 292 290 288 291 291 290 290 288 289 289 291 294 295 296 298 298 299 300 300 300 300 299 298 299 299 299 298 296 295 295 295 295 295 294 293 292 293 293 292 292 292 293 293 293 292 292 292 292 292 292 292 291 291 291 291 291 291 290 288 290 290 289 289 289 289 289 289 289 289 288 288
293 297 299 299 298 297 295 295 293 291 291 292 292 290 290 291 292 291 291 290 291 291 291 288 287 288 291 292 293 296 298 297 298 298 298 299 300 300 301 300 302 298 297 295 295 294 293 293 293 292 292 293 292 292 292 292 293 293 292 293 293 292 292 292 292 292 291 292 291 290 290 289 289 288 287 287 286 288 288 288 288 288 289 288 288 288
295 299 300 296 297 296 295 293 293 293 290 290 293 293 293 293 292 293 294 293 288 287 289 290 283 284 290 292 293 295 293 294 296 295 296 297 298 299 298 299 299 300 298 297 296 294 293 293 292 291 291 291 292 292 292 292 293 292 292 292 293 292 292 291 292 292 292 291 290 288 287 286 285 285 285 285 286 286 287 287 288 288 288 288 287 287
295 298 298 296 295 294 294 292 293 295 290 287 289 295 295 293 293 292 292 291 283 282 288 290 282 282 288 290 292 293 291 293 294 295 296 297 297 298 298 298 298 300 298 297 296 294 293 293 292 291 291 291 291 292 292 292 292 292 292 292 292 292 291 291 291 291 291 290 290 289 288 287 286 285 286 287 287 287 287 288 288 287 288 288 287 286
296 293 293 296 295 293 292 291 295 294 290 287 291 292 294 293 291 292 292 290 287 290 292 290 287 282 284 289 293 293 291 291 293 294 295 296 296 296 297 298 297 299 298 298 296 295 294 293 292 292 292 291 292 292 292 291 292 291 291 292 292 291 291 291 291 291 291 290 289 288 287 287 286 286 286 287 287 288 288 287 287 287 287 287 287 286
295 294 292 293 291 290 291 294 295 296 292 290 291 294 292 294 292 292 290 287 286 284 281 284 289 282 283 286 293 293 290 291 292 293 294 296 297 296 297 298 298 299 299 299 296 294 293 293 293 293 292 292 291 292 291 291 291 291 291 291 291 291 291 291 291 291 290 290 289 288 287 286 287 287 288 288 288 288 287 286 286 286 286 286 286 286
297 295 296 296 292 289 293 289 291 297 292 293 293 293 293 292 291 291 286 285 283 281 280 283 288 281 283 287 287 290 291 291 292 294 295 296 297 296 297 297 298 299 298 298 297 295 294 294 293 293 293 292 292 292 292 291 291 291 291 291 291 290 291 291 290 291 290 289 289 288 287 286 287 288 288 287 286 286 286 285 285 285 285 285 285 285
294 293 296 295 293 295 288 289 291 290 292 294 293 292 290 289 286 285 285 283 281 279 282 285 288 285 281 286 287 287 289 292 292 293 295 296 296 297 297 299 299 299 298 297 296 295 294 294 293 293 292 292 291 291 291 290 290 290 291 290 290 290 290 290 290 290 289 289 289 288 287 287 288 288 287 286 285 285 285 285 285 285 284 284 284 284
293 293 291 293 296 292 293 290 291 292 293 293 288 286 286 284 283 282 282 283 277 279 282 285 287 287 279 281 289 292 294 294 294 293 294 295 296 297 297 300 299 298 298 296 295 294 294 293 292 292 291 291 290 290 290 290 290 290 290 290 290 290 290 290 290 290 289 289 288 288 288 288 288 288 287 286 285 285 285 285 284 284 284 283 284 283
288 290 293 294 295 295 290 290 287 290 290 291 286 285 281 279 281 278 279 275 275 278 282 284 287 283 284 288 290 291 291 293 294 295 295 295 296 296 298 300 299 297 296 295 294 292 292 292 292 291 291 290 290 290 290 290 290 290 290 290 289 289 290 290 290 289 289 288 288 288 288 288 288 288 287 286 286 285 285 285 284 284 283 282 282 282
287 291 292 293 291 294 294 286 284 282 284 287 285 282 280 276 275 275 276 279 280 283 284 283 287 284 287 289 294 293 293 295 295 295 295 295 295 295 299 299 297 295 295 294 293 292 292 291 291 291 291 290 290 289 289 289 289 289 290 289 289 289 290 289 289 289 288 288 288 288 288 288 288 287 287 286 286 285 285 285 284 284 283 282 282 282
282 285 289 291 287 294 293 292 291 289 284 287 288 287 284 282 278 273 276 276 278 281 281 283 280 278 278 283 294 296 298 295 296 296 294 295 294 294 297 297 294 291 289 292 292 291 291 292 291 290 290 290 289 289 289 289 289 289 289 289 289 289 289 289 289 289 288 288 288 288 288 288 288 287 287 286 286 286 285 285 284 283 283 282 282 282
287 287 292 296 294 293 291 295 296 292 286 286 288 290 283 283 285 281 283 282 279 279 280 279 279 280 285 291 292 296 296 296 295 295 295 294 295 295 293 295 294 291 291 291 291 290 289 290 290 289 289 289 289 289 288 289 289 289 289 289 289 289 289 289 288 288 288 288 287 287 287 287 287 287 287 286 286 285 285 284 284 283 282 281 281 281
285 284 292 293 293 290 288 290 295 295 283 285 287 282 286 291 287 282 283 284 281 279 280 284 283 286 290 293 294 293 292 293 294 294 295 294 294 292 291 291 290 290 290 290 290 290 289 288 288 289 289 289 288 288 288 289 289 289 289 289 288 288 288 288 288 288 288 287 287 287 287 287 287 286 286 285 285 284 284 283 282 282 281 281 280 280
286 288 291 291 289 289 288 289 290 290 292 286 280 285 291 291 289 283 277 281 278 276 280 284 281 283 283 282 287 291 291 292 292 293 295 294 293 290 293 290 290 290 290 289 289 288 289 290 290 289 289 289 288 288 288 289 289 289 289 288 288 288 287 288 288 287 287 287 286 286 286 286 286 286 285 285 284 284 283 281 281 281 280 279 280 280
292 285 289 289 287 289 290 291 289 292 291 286 284 289 284 280 278 283 281 274 274 275 277 281 283 283 285 285 287 286 289 290 292 294 293 292 290 290 290 290 289 288 287 289 289 289 289 289 289 289 289 289 288 288 288 288 288 288 288 287 287 287 287 287 288 287 287 287 286 286 286 285 285 285 284 284 283 282 282 281 280 279 279 279 279 279
290 285 286 286 288 289 287 287 281 284 289 289 289 285 289 282 280 279 280 281 279 277 277 278 281 280 288 286 288 288 290 291 293 292 290 292 292 291 291 291 290 289 290 289 289 289 289 289 289 289 289 288 288 287 287 287 287 287 287 287 287 286 286 286 286 286 286 286 285 285 285 284 284 284 283 282 282 281 281 280 279 279 278 278 278 277
287 289 283 285 284 288 281 283 282 286 283 282 283 280 284 282 284 282 282 280 279 276 277 276 277 282 287 290 289 289 291 292 292 291 291 291 291 291 290 291 291 290 291 290 290 289 289 289 288 288 288 288 287 286 285 286 286 287 286 286 286 286 286 286 286 285 285 285 285 284 284 284 283 282 282 281 281 280 280 279 279 278 278 278 277 277
284 285 284 284 281 283 286 289 289 290 290 287 286 285 286 283 280 278 279 284 281 279 276 276 276 284 291 293 291 291 293 293 292 291 292 290 290 290 290 289 290 291 290 291 291 290 289 289 288 287 286 284 284 285 285 286 285 285 285 286 286 285 285 285 285 285 285 285 284 284 283 283 282 282 281 280 280 279 279 279 278 278 277 277 276 276
291 286 286 284 286 288 290 291 291 292 290 290 289 286 289 286 285 282 278 281 282 281 284 283 280 282 290 291 290 291 291 292 292 292 293 290 290 289 291 290 290 290 291 291 291 291 291 290 289 288 287 286 285 285 285 285 285 285 285 285 285 285 285 285 285 285 284 284 283 283 283 282 281 281 280 279 279 278 278 278 277 277 277 276 276 275
292 287 283 285 288 290 292 291 289 289 290 287 287 287 286 284 286 285 284 285 283 283 282 281 279 282 291 291 290 289 289 290 290 290 291 289 288 288 289 289 290 290 290 290 290 290 290 290 287 286 285 285 285 284 284 285 284 284 284 285 285 284 285 284 284 284 284 283 283 282 281 281 280 279 279 279 278 277 277 277 276 276 276 275 275 275
286 285 286 282 281 283 284 286 288 285 285 283 283 287 289 290 289 288 287 286 283 284 284 282 277 282 291 290 291 290 290 292 293 288 287 289 287 287 287 289 290 291 291 290 289 290 289 287 286 286 286 285 285 284 284 284 283 284 284 284 284 284 284 284 284 283 283 282 282 281 281 280 279 279 278 278 277 277 276 276 276 275 275 274 274 274
288 285 284 278 276 274 274 276 278 281 282 283 285 287 289 288 288 286 283 284 280 283 285 282 281 287 292 293 291 291 290 289 288 290 287 287 288 289 288 288 290 290 290 290 290 289 288 288 288 287 285 285 284 284 284 283 283 283 283 284 284 284 283 283 283 283 282 282 281 281 280 279 279 278 278 277 277 276 276 275 275 275 274 274 274 273
285 286 286 285 282 280 283 285 287 286 284 281 283 285 285 287 288 287 286 283 281 284 283 284 285 285 288 290 291 293 294 293 293 293 293 293 294 288 288 290 290 290 290 289 290 290 288 285 285 285 285 285 285 284 283 283 282 282 283 283 283 283 283 283 282 282 282 281 281 280 279 279 278 278 277 277 276 275 275 274 274 274 273 273 273 272
285 284 285 286 285 286 287 287 289 289 285 286 286 285 286 285 286 285 283 281 287 283 279 286 287 285 286 290 291 292 293 294 294 294 294 294 293 290 289 289 291 288 286 287 287 287 287 288 287 285 285 285 284 283 283 282 283 282 282 282 282 282 282 283 282 281 281 280 280 279 279 279 278 277 277 276 275 275 274 273 273 273 272 272 272 271
284 283 286 286 285 287 288 288 289 288 288 287 287 286 285 287 286 284 284 286 286 283 280 286 287 285 287 290 292 293 293 294 294 294 295 295 293 293 291 287 286 287 286 286 287 288 288 288 287 285 285 285 284 283 282 282 281 281 281 281 281 282 282 282 281 280 280 279 279 279 278 278 277 276 276 275 274 274 273 273 272 272 272 271 270 270
286 283 286 286 285 286 287 287 289 287 287 287 286 286 287 286 286 286 286 287 286 285 287 287 287 287 290 291 293 294 295 295 295 295 295 293 293 293 293 288 285 286 286 287 289 289 289 289 288 287 286 286 284 283 282 282 281 281 281 281 281 281 281 281 280 280 279 279 279 278 277 277 276 275 275 274 273 273 272 272 271 270 270 270 269 269
287 282 289 285 283 283 286 287 287 287 286 284 286 286 286 287 286 287 287 287 287 286 287 287 286 286 291 294 293 295 295 295 294 293 293 294 293 293 293 291 287 285 286 288 289 289 289 289 289 289 288 287 286 285 284 283 282 282 281 281 281 281 281 280 280 279 279 278 278 277 277 276 275 275 274 274 273 272 272 271 270 269 269 268 268 268
287 283 288 285 281 280 285 285 285 286 285 284 283 285 285 285 284 285 285 287 286 284 286 285 284 284 290 294 294 293 293 292 292 292 293 293 293 293 292 291 288 288 289 289 289 289 289 289 290 290 290 289 287 286 284 283 282 281 281 281 281 281 280 280 279 279 278 278 277 277 276 275 274 274 273 272 272 271 271 270 269 268 268 267 267 267
285 284 283 283 280 279 285 285 284 284 283 280 281 285 286 286 287 288 289 289 288 288 285 283 284 290 292 293 291 292 292 293 293 292 292 293 293 293 292 292 292 291 292 293 292 290 290 290 290 291 290 290 290 287 285 284 283 282 282 281 281 280 279 279 279 278 277 277 276 276 275 274 273 273 272 271 271 270 269 269 268 267 266 266 266 266
285 284 283 285 280 280 285 284 285 281 274 276 287 290 289 286 287 285 285 287 289 290 288 290 290 292 293 292 291 292 292 292 293 294 295 294 294 294 293 293 292 291 291 291 291 290 289 290 290 290 290 290 290 290 288 285 284 284 283 281 280 279 278 278 278 277 277 276 276 275 274 273 273 272 271 270 269 268 268 267 267 266 266 266 266 266
284 284 283 286 282 280 285 284 279 274 275 287 291 291 292 291 290 288 288 289 290 291 291 290 291 292 293 294 294 294 294 295 295 295 294 294 293 292 292 293 293 292 293 293 292 292 290 290 289 289 289 288 289 289 287 284 284 281 281 280 279 278 278 278 277 276 276 275 275 274 273 273 272 271 270 269 268 267 266 266 266 266 266 266 266 266
285 284 284 284 284 284 282 280 274 274 285 286 290 291 292 291 290 288 286 289 290 291 291 290 291 293 294 294 294 295 295 295 295 295 295 295 295 294 294 294 294 294 294 294 294 293 292 291 290 290 290 289 288 287 285 285 283 281 280 279 279 278 277 277 276 276 275 274 274 273 273 272 271 270 268 268 267 266 266 265 266 265 266 266 266 266
289 287 286 281 286 279 280 280 279 286 285 285 286 287 288 286 286 285 281 285 291 291 291 291 291 292 293 294 294 295 295 294 293 293 296 295 296 296 296 295 295 295 296 296 295 294 294 291 289 290 289 287 287 285 284 282 282 281 279 278 277 277 276 276 276 275 275 274 273 273 272 272 270 268 267 267 266 265 265 265 265 266 266 266 266 266
291 286 287 284 281 287 279 278 280 279 275 282 289 290 294 293 293 291 288 285 292 293 293 292 291 292 292 293 293 293 294 290 288 290 294 296 296 296 296 296 295 294 294 294 295 295 293 291 290 290 290 287 285 285 283 281 281 279 278 277 276 276 276 276 275 275 275 274 273 272 272 271 270 268 267 266 266 266 266 266 266 266 266 266 266 266
291 291 288 285 282 285 281 277 277 276 279 287 288 292 293 294 293 292 287 282 289 292 293 293 292 292 292 292 292 293 290 286 287 290 294 295 295 295 294 291 291 292 293 294 294 294 292 291 290 287 285 284 284 282 281 281 280 279 277 277 276 276 275 275 276 275 274 274 273 272 271 270 269 268 266 266 266 266 266 265 265 266 266 266 266 266
286 287 286 283 281 282 281 279 276 282 281 288 291 292 294 295 294 286 277 278 291 292 293 293 292 292 292 292 292 290 288 286 288 291 292 291 291 291 290 290 290 290 290 290 291 291 291 287 285 284 283 284 285 281 281 280 280 279 278 277 276 275 275 276 276 276 274 273 272 271 270 270 268 267 266 266 266 266 266 266 265 265 265 265 266 265
283 284 285 280 282 282 283 280 282 283 289 290 290 292 292 293 289 281 276 284 289 290 291 290 289 289 289 288 288 286 287 286 288 289 290 291 291 292 292 290 288 287 289 290 291 290 287 285 287 287 286 285 282 280 279 279 279 278 277 276 275 275 276 276 275 274 273 271 270 269 269 269 268 267 266 266 266 266 265 265 265 265 264 264 264 265
282 282 283 285 281 280 281 280 279 284 288 292 293 294 291 287 280 280 286 288 289 289 289 289 289 289 288 288 287 287 288 289 289 289 290 290 290 290 291 291 291 290 287 286 286 286 286 284 285 285 285 283 281 280 279 279 279 278 276 275 275 276 276 275 274 273 271 270 269 268 268 268 267 266 265 265 265 265 264 265 265 264 264 264 264 264
278 280 277 280 282 283 282 278 278 274 284 286 286 289 290 284 282 284 285 288 289 288 288 288 288 288 288 288 288 288 289 289 289 289 289 290 290 290 290 290 290 289 287 286 288 285 285 285 285 285 284 281 280 280 280 279 278 277 276 275 276 276 274 273 272 271 269 268 267 267 266 266 265 265 264 264 264 264 264 264 263 263 263 264 264 263
281 274 277 279 279 273 274 276 276 281 283 287 285 280 283 283 285 285 285 285 290 289 288 287 288 289 288 287 288 288 288 288 289 290 290 290 290 290 290 290 290 289 289 286 284 284 285 285 285 285 282 279 279 280 280 278 278 277 276 277 276 274 273 271 270 269 268 267 266 265 264 264 263 263 263 264 264 264 263 263 262 262 262 263 263 262
287 279 279 274 280 277 273 278 282 285 286 287 287 284 284 284 284 285 288 289 288 288 288 286 286 287 287 287 287 287 286 288 289 290 289 289 290 290 290 289 289 289 289 288 287 285 284 285 286 285 282 279 278 279 280 279 279 278 277 277 274 273 271 270 268 267 266 265 264 263 263 262 262 262 263 263 264 263 262 261 261 261 262 262 263 262
282 282 283 280 278 284 284 285 286 285 282 282 283 284 283 283 284 287 286 285 286 286 285 284 286 285 286 286 285 285 286 287 288 288 289 289 289 289 289 289 289 289 289 286 285 284 284 284 284 283 283 280 277 278 279 279 280 279 279 274 272 272 270 268 267 266 265 263 263 262 261 261 260 261 262 263 263 263 262 261 261 262 262 262 263 263
279 280 279 276 279 276 270 281 280 279 280 281 281 282 283 285 287 286 285 285 284 284 284 285 285 284 285 285 284 284 285 286 286 287 287 286 286 287 287 288 288 289 289 289 289 285 281 282 283 283 282 281 279 277 278 278 280 280 275 271 272 270 269 267 266 265 263 262 261 261 261 261 260 260 261 262 263 263 262 262 263 263 262 262 263 264
273 281 275 274 274 272 272 277 278 280 280 281 281 281 283 282 282 283 284 283 283 283 283 283 284 283 284 283 283 283 283 284 284 284 284 285 285 286 286 287 288 289 290 289 288 285 282 282 284 284 283 282 282 278 277 277 277 277 273 271 269 268 267 266 266 264 263 262 261 260 261 260 261 260 260 261 262 262 262 263 264 263 263 263 264 263
275 278 269 274 273 274 278 278 279 279 278 279 280 280 280 281 281 281 282 282 282 282 283 284 284 283 283 283 283 283 283 284 284 284 284 285 286 286 287 288 289 289 289 289 285 283 283 282 282 283 283 283 283 278 276 275 276 274 271 270 268 267 266 266 265 263 262 261 261 260 261 260 260 260 260 261 261 262 262 263 264 264 264 266 266 265
274 271 275 274 270 270 272 275 277 271 271 276 278 279 280 281 281 281 282 282 282 282 282 283 283 284 284 284 284 284 283 284 285 285 285 286 287 288 289 289 290 289 289 287 286 282 282 282 283 283 282 283 281 276 275 275 275 272 270 269 268 267 266 265 263 262 261 261 261 261 261 260 260 260 260 261 261 261 262 266 267 266 265 265 268 270
273 274 274 270 270 270 274 276 277 277 276 277 279 280 281 281 280 278 278 279 279 280 282 281 280 280 280 281 283 283 283 283 283 284 284 285 285 286 287 288 288 288 288 288 288 285 281 281 281 281 281 281 278 275 274 274 273 270 268 268 267 267 266 264 263 262 261 261 260 261 261 260 260 260 261 261 262 262 262 263 266 269 269 269 270 271
Wind_Speed
5 6 6 9 15 11 10 11 13 13 12 12 9 8 11 9 11 14 11 5 8 3 10 13 14 14 15 12 9 12 11 12 12 10 11 11 13 14 13 9 11 12 11 8 11 12 12 11 10 8 8 8 9 9 11 12 12 12 14 12 13 11 11 11 11 10 10 10 8 6 8 8 7 7 6 6 5 6 7 7 6 6 5 6 5 4
0 7 10 16 18 8 8 9 11 12 12 13 10 8 10 6 14 13 10 4 5 6 5 9 9 13 15 11 10 10 11 15 15 14 14 17 16 16 13 12 11 9 2 7 6 8 8 8 8 8 8 9 12 9 11 13 14 12 13 14 12 11 11 11 11 10 10 9 10 10 10 8 8 8 8 7 6 7 6 7 6 6 4 6 5 5
8 12 15 17 13 8 10 10 8 7 8 7 6 6 7 12 13 11 11 4 1 4 8 8 11 14 15 12 11 12 14 14 12 14 18 16 17 15 11 10 6 4 5 7 8 8 9 9 10 9 9 9 12 12 13 13 13 12 13 12 12 11 12 11 11 11 10 9 8 8 7 9 6 4 6 6 6 5 7 6 6 6 5 6 5 5
9 10 18 13 11 11 11 7 5 5 7 6 6 4 11 11 6 10 1 1 3 5 2 4 8 10 13 15 18 19 19 17 17 17 19 17 16 15 16 11 6 7 9 11 11 11 10 10 10 9 9 10 10 11 10 12 15 12 12 12 13 12 11 11 11 11 9 9 7 7 8 7 8 7 6 5 6 6 7 6 6 5 6 6 6 6
17 4 4 11 13 13 14 9 5 5 11 7 9 8 11 11 11 10 6 4 4 7 7 5 10 10 12 16 12 14 16 16 15 11 14 16 14 14 11 6 6 8 10 9 8 9 10 11 13 13 12 10 12 13 13 13 14 11 14 14 14 13 13 11 12 12 10 9 8 7 8 7 8 6 6 7 5 6 6 7 7 7 6 6 6 6
17 10 1 4 1 5 5 6 6 6 13 8 7 12 16 14 13 11 10 7 4 5 4 1 9 8 8 15 16 10 4 8 9 9 15 15 13 15 10 11 6 6 10 14 14 14 14 12 9 8 10 12 12 13 13 12 13 11 12 12 13 11 11 11 12 13 11 11 12 11 11 10 7 8 9 10 12 10 9 9 7 7 7 7 6 6
7 3 11 11 8 6 5 7 6 5 12 9 6 10 16 13 9 9 9 3 4 6 1 0 0 17 6 7 6 1 5 8 6 10 15 13 11 12 13 10 6 10 9 7 8 9 11 11 11 12 13 14 14 13 10 10 11 11 12 12 13 12 11 11 11 12 11 11 11 13 14 13 14 13 8 7 6 8 7 7 9 8 7 7 7 6
5 3 3 1 5 7 5 7 10 10 9 11 1 0 0 2 5 4 3 6 7 2 2 3 3 11 21 10 7 10 7 7 8 11 12 13 13 10 11 12 5 9 10 12 12 13 13 14 16 17 16 14 15 11 10 10 11 13 13 13 13 11 11 10 11 13 12 13 12 11 10 9 9 10 10 10 9 9 9 9 9 8 7 7 7 7
3 3 6 8 5 4 10 14 4 9 8 2 1 2 1 0 0 1 2 4 3 4 7 6 6 4 14 1 12 13 8 9 12 10 11 15 15 9 10 12 9 11 13 12 11 13 14 15 14 12 12 12 9 11 13 13 12 11 11 12 12 12 11 11 13 13 12 11 12 12 10 10 8 8 8 8 8 9 9 10 8 8 8 7 7 7
2 2 3 6 5 10 8 2 2 2 9 1 1 4 2 1 1 0 1 2 3 2 12 7 10 6 24 3 2 7 12 13 12 13 15 16 14 12 8 9 9 9 8 8 11 12 12 12 12 11 9 9 12 11 9 9 10 11 11 13 14 13 12 11 12 12 12 11 10 11 11 11 9 8 7 9 9 9 9 10 9 8 8 8 7 7
1 2 1 1 8 4 4 2 2 2 1 3 1 1 2 0 2 0 0 1 3 10 15 9 12 11 17 4 10 9 7 11 10 7 10 12 11 10 7 8 9 9 9 8 8 8 10 9 10 10 12 12 9 9 11 11 12 11 12 13 15 14 11 11 13 13 14 12 11 12 12 13 12 11 11 10 10 9 8 9 9 9 8 8 8 7
2 2 1 3 4 4 4 2 1 1 0 2 1 1 1 4 2 1 1 1 2 17 3 14 15 15 14 2 3 11 11 13 13 13 14 13 12 11 8 7 9 9 8 8 8 8 9 9 9 10 11 12 12 10 12 12 11 12 12 13 14 13 13 12 13 14 14 13 13 11 12 14 13 13 12 13 13 13 12 11 10 8 7 7 7 8
8 13 4 2 5 9 4 3 0 1 1 3 4 2 3 4 2 2 3 2 6 14 1 8 12 4 22 14 0 5 3 8 10 10 12 13 12 9 7 8 8 8 8 10 9 9 9 12 13 13 12 11 12 15 15 14 13 13 13 15 16 16 15 14 14 15 15 14 13 13 12 12 11 12 11 11 12 11 11 10 10 10 9 8 8 8
6 2 7 7 4 7 7 9 0 2 7 7 7 7 5 4 4 7 4 5 7 7 5 4 10 14 10 5 12 12 9 10 11 10 10 10 9 7 7 7 7 8 9 9 10 10 12 12 12 13 13 14 13 13 14 13 13 13 13 15 17 17 15 13 14 15 15 16 14 12 12 11 11 11 11 10 10 10 9 9 11 11 10 10 9 9
5 10 9 9 6 8 13 13 18 7 7 14 5 9 11 8 2 2 4 9 9 9 1 1 4 7 2 6 13 19 17 11 11 11 9 7 7 6 4 6 6 6 6 7 9 11 12 13 13 14 14 13 13 14 14 13 14 13 13 15 17 15 16 16 16 15 16 14 14 12 11 11 10 11 10 9 9 10 10 8 9 8 8 8 8 9
10 14 4 16 0 9 13 12 6 3 1 4 3 2 2 9 2 10 10 9 6 6 8 5 7 2 6 1 7 10 11 11 10 12 9 9 6 4 5 6 7 7 7 7 9 9 8 9 10 9 11 12 12 14 13 14 14 15 16 17 18 20 19 18 16 16 16 15 13 13 14 13 12 10 9 8 7 8 8 9 9 8 8 7 8 7
0 8 3 3 4 6 5 2 6 4 6 2 8 7 10 1 6 5 6 7 2 3 18 4 8 10 5 16 17 11 7 9 9 11 12 11 8 6 6 6 6 7 8 9 11 11 10 7 8 11 12 11 11 12 16 18 18 19 17 16 17 16 14 16 17 16 14 14 13 15 14 13 12 12 12 12 11 10 8 8 8 8 7 7 7 7
9 10 2 3 3 2 1 1 2 2 1 7 2 6 1 2 2 2 3 0 3 7 12 7 13 15 8 16 1 12 12 11 10 13 16 14 10 7 7 7 8 10 11 8 7 7 10 11 12 11 10 11 15 16 16 17 16 15 15 16 17 16 18 17 16 16 15 16 16 14 15 14 14 12 11 10 11 10 9 8 8 7 8 8 7 7
4 11 6 1 3 2 2 0 4 0 3 3 3 4 2 3 2 3 1 4 6 9 7 10 17 15 15 18 8 1 12 13 13 17 17 12 9 7 7 9 8 5 4 7 10 10 10 12 13 14 15 14 11 12 13 14 13 12 12 13 14 18 19 17 14 13 12 14 12 12 14 14 12 11 10 9 10 9 10 10 9 9 9 8 8 8
1 7 3 2 2 2 2 2 5 2 1 3 2 4 0 1 3 4 6 2 3 12 6 15 15 17 10 5 6 8 13 14 17 17 10 10 10 9 8 9 9 7 9 11 10 11 12 14 14 15 15 15 17 15 13 12 10 13 14 13 13 10 9 11 14 14 15 15 13 12 11 11 11 10 11 11 12 11 11 10 10 9 9 9 8 8
5 5 12 1 4 2 3 5 6 9 8 3 1 4 1 2 2 2 4 5 6 7 8 9 13 19 5 2 4 6 11 11 13 11 7 8 9 9 8 10 9 8 10 10 10 11 13 13 12 12 11 11 8 6 6 9 14 14 11 12 13 16 16 16 15 14 14 12 13 13 15 14 12 12 10 10 11 11 10 10 9 9 8 8 8 8
1 3 12 3 2 8 6 4 11 10 13 11 14 14 15 9 4 5 13 3 5 6 6 8 15 16 10 2 4 8 11 12 9 8 8 7 8 7 8 8 9 8 8 9 10 11 11 11 11 9 7 5 5 8 10 11 9 10 14 15 13 13 13 16 14 16 15 13 13 14 13 13 11 11 10 11 10 11 10 10 9 9 9 9 7 8
6 3 5 9 10 10 4 3 2 2 3 3 5 8 9 8 7 9 16 11 4 5 5 9 11 21 8 7 4 0 4 6 6 6 6 6 8 8 10 10 9 9 10 11 11 11 12 12 12 12 12 12 13 13 12 11 13 14 14 13 14 16 17 16 15 12 11 12 13 14 12 12 12 12 12 12 10 10 10 10 9 9 10 9 8 7
5 3 3 9 5 6 13 5 1 0 1 4 6 5 3 8 11 12 11 8 10 6 7 8 14 15 16 1 4 5 6 6 5 6 6 7 6 7 8 7 8 8 10 10 8 7 9 9 6 7 9 12 12 12 15 15 13 10 10 12 11 14 15 13 13 13 13 12 12 12 12 13 12 13 13 13 11 11 10 10 9 8 9 8 7 8
2 2 7 8 4 7 8 7 13 1 2 3 4 5 7 9 7 8 7 1 12 13 14 14 20 10 13 3 9 9 6 10 14 10 7 7 6 6 8 8 9 11 12 9 8 10 9 7 8 11 12 12 12 12 12 13 13 13 14 12 14 15 11 11 10 12 13 13 13 13 13 13 13 14 14 13 11 12 11 10 10 9 9 9 8 7
7 0 2 4 9 9 8 10 9 8 6 4 3 11 14 12 14 10 12 9 15 9 16 17 17 15 21 15 9 8 7 8 8 7 6 6 7 9 7 9 11 12 12 10 10 8 8 11 11 10 10 11 12 13 13 12 13 14 13 15 14 12 12 12 10 12 12 13 14 14 15 14 14 15 15 13 12 12 11 11 10 10 8 9 9 8
2 3 5 9 12 14 16 15 6 3 1 4 7 8 10 10 11 10 9 11 14 13 17 16 17 21 20 22 25 25 22 20 20 18 15 15 18 8 8 11 12 11 10 11 12 12 9 6 9 12 11 12 13 12 11 12 12 12 13 13 12 12 11 11 11 12 13 13 14 13 15 15 15 14 13 13 12 11 11 10 10 10 10 9 9 9
4 7 14 18 21 20 20 21 20 16 15 16 16 17 11 9 11 12 11 15 11 14 20 14 19 18 19 21 27 29 27 23 18 17 17 17 15 9 9 10 12 8 7 6 7 8 10 13 12 10 12 12 12 11 10 11 13 13 12 14 13 12 12 11 13 13 13 13 14 14 15 14 12 12 12 11 11 12 11 11 10 10 9 9 9 9
7 12 15 16 22 24 25 24 23 23 21 20 20 20 22 20 15 15 18 19 18 18 24 15 16 19 21 22 23 26 27 25 20 18 21 21 16 14 13 9 8 9 7 8 10 11 11 12 11 11 12 13 12 11 13 11 11 10 10 8 9 12 14 13 13 13 13 13 14 14 13 12 11 11 12 12 12 12 12 11 10 10 9 9 8 7
5 11 11 18 21 20 21 24 24 26 23 21 20 21 23 21 22 22 24 24 26 25 21 20 22 28 27 24 24 28 26 23 21 21 20 21 22 21 22 11 8 8 9 11 13 14 13 14 12 12 13 12 12 13 12 11 12 13 14 13 13 13 11 12 14 14 14 15 15 13 12 13 12 12 12 13 13 13 12 12 11 10 9 8 8 8
12 11 16 15 14 18 19 21 21 24 22 24 23 20 19 19 22 25 24 24 22 22 22 26 27 28 22 27 28 25 22 18 20 24 27 27 22 22 23 14 8 8 11 14 15 15 13 13 12 13 13 13 13 15 15 15 14 12 12 12 13 13 12 13 13 14 14 15 13 12 12 13 13 13 14 13 12 11 12 11 10 10 9 9 8 8
10 11 9 7 10 13 13 20 22 23 23 25 23 21 20 22 26 24 22 23 21 24 24 24 21 20 23 26 20 18 17 18 23 26 27 23 22 24 21 14 7 10 13 15 15 12 12 13 14 15 16 16 15 15 13 13 12 12 15 13 13 12 12 13 13 14 14 12 12 12 14 13 13 13 12 12 12 12 11 11 11 11 10 10 9 8
7 5 8 9 14 14 13 19 22 23 20 19 20 22 31 32 28 23 21 18 19 21 21 19 23 21 22 15 16 17 18 20 24 25 25 25 24 23 19 14 14 15 16 16 14 11 12 13 14 16 16 14 14 14 15 15 14 15 14 14 13 11 13 14 14 13 12 12 13 14 14 12 13 13 12 12 12 11 11 11 11 11 11 10 8 8
8 12 12 8 12 11 13 18 14 15 19 16 15 29 29 30 28 29 26 26 29 23 21 20 22 20 18 14 17 20 24 25 25 25 22 18 18 21 19 16 16 13 12 11 10 9 10 11 10 11 13 14 14 15 16 15 18 17 14 12 11 14 13 14 12 13 13 12 13 14 13 13 13 13 12 11 11 11 11 11 11 10 8 8 8 8
12 12 12 7 10 9 10 12 13 21 20 8 16 20 27 29 28 29 28 28 28 27 27 24 24 22 21 20 22 25 27 28 27 26 21 16 16 15 15 18 17 12 12 13 14 12 10 10 11 10 10 10 12 11 9 9 11 7 10 12 13 12 13 13 12 12 13 13 13 13 13 13 13 13 12 12 12 11 11 11 10 10 9 8 9 9
11 12 9 7 8 7 7 7 15 14 1 5 8 14 14 18 21 21 25 24 26 25 25 24 24 24 26 27 27 26 26 28 26 21 18 19 17 13 17 19 18 13 14 15 13 12 12 11 11 11 12 10 9 8 9 12 10 12 12 11 14 13 12 13 13 13 12 13 13 14 14 15 14 14 14 14 13 13 11 10 10 12 10 9 7 7
21 15 11 12 11 16 11 14 22 10 10 6 4 7 12 16 13 18 21 24 26 25 25 27 27 25 24 26 27 27 24 20 17 17 16 19 19 18 18 16 14 15 17 16 13 13 13 10 8 10 8 7 8 9 10 8 11 11 11 12 11 13 12 13 14 15 16 15 15 15 15 16 17 16 15 15 16 13 12 12 11 10 9 10 9 9
19 20 14 16 10 14 16 14 13 11 16 14 13 12 17 19 20 19 17 25 13 20 20 25 26 27 28 25 24 23 19 17 15 15 17 20 18 18 18 16 12 12 11 13 13 12 9 8 7 8 8 7 8 9 7 10 12 12 12 11 11 13 13 14 16 16 15 16 16 17 17 17 18 18 18 18 14 13 11 10 8 9 9 9 10 9
23 22 21 19 15 12 16 14 13 14 15 6 14 17 19 17 19 19 16 24 5 15 16 24 27 25 23 21 21 19 14 13 14 14 14 16 15 13 13 9 9 10 11 12 12 13 10 9 8 7 5 5 7 6 8 11 13 13 13 12 13 13 14 16 16 16 18 17 16 16 16 16 16 18 21 15 11 11 13 12 11 10 8 7 7 8
20 15 13 16 15 9 11 14 16 8 12 9 12 12 18 19 15 5 17 10 11 19 18 20 21 20 17 18 17 13 11 14 11 9 8 10 8 8 7 8 8 9 9 9 8 9 8 5 4 3 5 8 9 6 9 10 11 13 13 13 12 14 16 18 19 15 12 12 14 14 14 14 16 16 18 16 10 7 9 9 9 10 9 7 6 7
13 14 16 23 21 23 23 17 14 11 8 5 6 6 8 9 6 13 21 8 15 11 13 12 12 11 13 13 11 6 5 5 7 10 12 14 15 15 14 10 9 8 8 8 9 7 4 5 6 8 9 5 4 8 8 9 10 11 11 12 13 17 20 14 11 13 13 13 13 14 15 15 17 18 15 15 14 7 7 7 9 9 8 8 7 7
8 7 7 15 19 17 14 20 18 12 4 9 10 12 3 2 9 13 7 11 7 11 10 11 11 13 11 9 8 7 9 10 9 8 12 12 10 10 11 12 13 11 8 7 9 7 4 2 2 4 2 2 7 8 9 9 12 10 10 11 16 20 9 11 13 13 13 15 15 15 15 16 14 15 15 13 15 14 9 6 7 8 8 6 8 9
5 7 5 7 9 11 12 12 13 13 2 17 17 10 1 6 5 10 12 16 10 4 9 9 8 8 10 11 10 11 13 14 12 10 9 9 9 10 11 12 12 11 9 7 8 5 1 4 5 6 4 2 5 6 6 9 10 9 9 14 17 7 9 10 12 13 14 15 15 15 16 15 17 14 12 14 11 10 11 9 9 8 7 9 8 8
4 7 5 3 6 5 6 6 1 6 7 9 10 6 10 10 13 16 14 12 7 7 8 10 9 10 10 10 13 15 15 14 14 13 12 12 10 10 10 9 9 10 11 8 5 4 1 5 6 6 2 1 3 6 7 10 10 8 11 17 5 8 9 11 12 13 14 14 15 15 14 14 14 13 14 14 10 9 11 10 9 8 6 7 7 7
2 1 1 9 4 5 5 10 14 15 6 2 2 6 11 16 13 12 6 7 8 9 8 9 13 15 14 13 15 15 16 15 15 14 13 13 13 12 12 11 9 9 10 10 9 5 4 7 8 6 5 3 4 5 8 8 11 10 14 9 9 11 13 12 13 14 14 14 14 14 13 12 12 12 15 10 10 11 10 10 9 9 7 7 8 7
8 13 10 10 7 7 9 9 16 8 13 20 19 13 14 19 17 5 6 9 8 8 11 13 12 14 16 13 15 16 17 17 19 18 17 16 17 17 16 15 13 10 8 8 8 7 6 5 5 5 8 6 5 6 7 9 10 14 16 6 9 10 12 14 15 14 14 13 13 14 14 15 13 12 10 10 6 7 8 11 10 9 9 7 7 8
5 8 13 10 7 13 12 3 13 18 24 25 28 27 17 2 5 8 6 4 12 14 13 10 13 15 17 17 15 15 18 19 20 20 19 18 19 18 18 18 17 15 11 10 10 8 5 6 7 9 9 10 8 9 8 10 11 10 3 9 8 10 12 13 14 14 13 14 13 14 16 16 14 13 10 9 8 6 7 8 8 9 9 8 8 8
11 7 17 11 17 13 16 16 17 14 17 20 18 15 14 15 16 11 12 12 11 10 12 15 14 15 13 14 16 17 18 18 18 18 18 18 18 17 17 16 16 15 13 9 9 7 6 7 9 10 9 11 10 9 9 9 10 7 8 9 11 11 13 14 15 16 16 16 14 8 9 8 14 12 10 9 9 10 8 5 7 9 10 11 11 12
13 12 15 9 15 16 16 16 13 11 9 12 12 11 14 17 18 18 13 13 13 13 13 13 11 14 15 15 15 15 16 16 15 15 16 16 17 16 15 16 15 13 12 9 6 6 8 9 10 11 11 12 9 9 10 12 11 9 12 13 13 15 16 15 14 13 14 14 11 10 7 8 15 11 10 11 6 5 7 10 9 9 8 7 7 9
9 12 13 13 13 14 11 10 14 17 18 19 20 17 15 13 15 16 16 14 12 12 12 13 13 12 13 14 16 16 14 14 15 15 14 14 14 15 15 15 14 11 10 8 7 6 9 10 11 11 12 13 8 8 11 12 12 11 12 13 15 17 18 16 15 15 15 14 14 12 12 12 11 12 7 10 10 10 8 7 12 9 10 9 13 14
11 12 10 11 9 14 14 19 18 20 21 16 18 16 14 10 10 12 12 13 14 14 12 14 16 17 17 15 13 15 17 18 20 19 20 18 18 17 17 18 16 15 14 13 12 9 9 10 10 11 12 12 7 10 11 11 11 11 12 14 16 18 18 17 15 15 14 14 14 16 16 13 12 11 6 8 9 10 11 11 10 13 14 14 16 15
Wind_Direction
144 180 192 215 237 229 219 216 227 238 242 257 266 265 264 266 272 267 273 217 201 199 219 224 236 249 260 252 243 253 261 264 260 247 241 240 245 249 251 241 234 232 231 185 178 175 183 181 175 163 160 160 162 162 159 161 168 162 168 164 171 170 164 161 161 164 161 158 155 151 168 173 171 173 165 169 175 164 152 141 143 149 150 140 142 147
37 216 218 230 242 240 236 231 228 235 238 244 253 261 273 263 267 267 284 139 216 184 247 235 238 247 252 252 247 247 247 252 254 257 254 256 255 258 256 248 236 231 101 128 142 167 170 165 163 157 159 157 163 172 160 169 175 169 170 174 170 170 170 170 169 166 169 172 174 168 174 165 171 168 168 175 179 167 146 146 142 150 152 143 153 153
212 221 231 237 251 258 257 259 257 260 269 273 264 279 286 269 272 284 272 146 198 159 261 267 263 262 264 259 254 245 243 246 244 248 254 253 260 264 260 247 237 157 156 155 160 160 168 163 164 162 165 171 171 171 173 174 173 172 174 177 173 175 173 172 168 169 173 171 169 166 166 163 161 162 155 160 167 152 141 147 146 158 152 152 157 145
247 230 242 253 256 256 261 241 247 270 263 251 261 268 253 261 281 289 151 189 179 194 238 228 271 273 275 266 260 255 250 249 245 245 256 253 253 257 257 249 226 187 167 170 165 169 167 165 167 166 172 173 170 175 176 176 179 176 178 177 176 177 175 172 173 172 170 165 161 155 155 152 149 155 147 130 138 136 137 155 158 166 158 160 159 151
235 226 196 228 234 235 244 237 226 235 257 221 220 237 257 256 247 238 261 182 207 229 250 312 280 267 251 264 258 249 238 242 248 246 248 256 257 251 255 262 196 179 173 166 169 167 163 170 179 180 178 171 178 183 184 181 181 184 181 179 176 177 178 176 171 169 163 149 132 118 96 96 95 94 118 125 141 157 158 155 167 177 165 161 154 152
251 247 236 220 181 227 228 245 221 212 263 253 213 212 240 252 263 266 276 309 342 297 160 164 308 246 222 226 242 252 203 225 236 227 241 242 243 260 254 245 222 183 171 176 180 179 176 176 175 178 179 183 187 190 191 183 182 178 177 176 176 178 178 178 173 168 164 160 154 149 146 149 149 158 165 177 177 176 178 180 167 168 165 156 152 156
251 186 207 222 213 223 222 240 231 189 255 271 242 211 241 252 255 263 280 331 266 243 307 358 279 293 167 243 232 229 186 220 228 219 237 245 239 236 252 251 206 180 180 183 177 166 166 178 177 185 189 191 192 197 180 179 182 180 178 179 179 179 179 177 174 171 162 163 169 172 173 171 173 172 189 176 169 167 169 164 166 164 157 156 156 159
192 150 122 150 204 226 228 253 236 207 248 262 108 340 99 269 259 253 246 203 247 315 264 147 125 276 286 238 226 221 212 222 228 232 238 247 244 214 226 244 201 181 178 180 180 177 179 178 182 188 193 190 197 183 177 183 182 183 182 179 180 178 178 179 174 176 172 171 174 175 178 177 179 180 173 174 174 165 160 162 158 153 157 159 160 161
197 179 189 211 199 202 224 230 243 178 204 237 300 23 70 46 14 353 230 260 257 329 267 174 163 266 265 305 193 182 222 227 230 227 238 245 251 231 213 220 207 185 189 181 174 177 180 184 189 189 189 195 182 182 186 187 185 181 181 179 179 181 178 180 178 177 178 178 177 179 176 180 186 174 167 163 156 150 153 149 154 155 160 161 165 163
313 170 237 199 156 223 228 45 41 181 215 247 145 66 78 57 49 222 229 289 308 265 253 169 172 216 275 187 215 196 194 215 223 223 234 242 245 244 223 211 200 188 189 188 178 177 182 183 184 184 179 178 191 187 184 183 180 183 180 181 182 185 181 179 179 178 180 180 176 181 185 182 177 169 158 152 152 150 153 154 161 160 158 163 164 165
240 172 159 184 208 232 96 79 91 55 127 154 145 94 37 348 212 325 150 144 349 249 252 180 193 180 273 258 176 157 207 205 208 222 233 244 253 254 229 195 182 184 177 175 175 176 175 175 170 165 176 186 178 182 180 184 186 184 184 183 186 186 179 178 179 179 184 183 186 186 185 182 176 169 158 154 160 156 157 162 166 167 167 165 166 161
222 83 161 247 53 99 127 72 32 203 5 131 114 144 24 309 32 19 319 108 205 271 251 182 189 185 233 303 231 186 184 192 188 203 211 230 239 241 231 195 188 174 169 165 164 169 162 158 168 170 179 178 181 177 185 188 185 187 187 184 185 187 185 180 179 182 187 188 191 190 187 185 182 173 169 170 169 172 171 170 168 166 163 168 160 158
246 234 207 39 247 158 176 167 16 26 113 155 127 117 156 255 49 282 74 272 204 249 122 177 173 232 234 229 154 252 233 204 203 208 203 211 225 230 218 195 182 169 159 167 171 167 169 173 174 181 181 176 180 187 188 187 186 188 188 187 186 192 186 184 180 186 188 190 193 191 188 189 183 184 179 176 174 175 172 168 166 167 170 162 158 163
273 244 188 208 31 224 135 197 197 313 215 164 164 164 140 251 226 260 241 222 269 257 269 188 181 223 263 255 203 236 221 204 204 213 213 197 205 208 202 192 173 172 173 176 174 180 181 179 181 183 182 183 186 187 187 186 187 190 191 190 190 193 187 183 184 187 189 194 193 190 189 187 184 187 184 183 177 177 174 171 171 172 170 168 169 162
293 285 219 133 243 167 187 210 208 208 151 199 181 146 196 187 183 242 218 242 242 261 300 255 97 236 85 248 186 208 221 204 198 209 218 215 208 212 188 174 160 161 180 174 180 189 189 187 182 184 187 185 186 186 186 186 192 189 193 192 193 190 191 188 189 186 192 192 191 189 189 186 186 184 183 184 179 174 172 174 168 167 164 162 162 160
229 245 255 173 54 154 188 223 225 80 15 211 175 199 300 229 166 233 240 252 277 333 300 200 212 215 233 217 200 211 216 215 201 203 214 233 225 155 143 165 177 186 182 189 191 198 209 197 188 190 192 191 186 186 186 189 189 194 198 195 195 192 190 190 187 191 191 191 188 189 188 188 184 181 176 176 173 171 169 167 166 164 160 154 145 144
352 258 94 118 32 159 187 25 206 149 222 229 127 200 212 67 186 258 291 277 307 316 262 248 273 258 311 267 236 230 205 215 210 205 216 224 224 193 192 201 192 196 192 190 199 204 197 197 210 201 195 192 190 186 190 193 193 196 193 193 195 194 192 193 192 190 189 187 188 193 190 186 184 182 180 177 173 167 162 157 158 156 154 143 141 142
236 259 50 174 233 302 261 296 302 40 132 96 199 251 359 355 102 159 246 10 227 236 273 287 262 287 309 290 94 194 197 204 193 203 216 216 216 203 213 214 205 201 202 204 217 208 200 202 202 201 208 203 197 195 193 196 196 197 197 195 191 189 193 195 190 189 187 188 191 190 191 190 187 183 179 172 169 162 155 153 149 146 146 156 150 142
206 267 243 238 35 333 324 326 320 81 71 138 189 321 118 252 277 255 165 255 260 255 268 270 282 270 255 261 284 211 201 203 199 207 215 214 214 215 222 235 228 199 183 202 203 199 205 206 206 205 206 205 208 206 202 198 192 193 198 200 197 197 196 190 188 189 189 189 190 189 190 187 185 180 175 169 162 158 160 158 157 158 156 142 143 142
52 253 254 324 98 77 355 134 210 171 330 130 46 331 141 84 241 145 200 215 174 257 277 274 284 275 249 228 258 210 200 193 197 208 210 208 209 210 221 227 227 202 206 201 203 210 212 210 208 206 202 201 204 200 200 196 193 198 199 193 199 198 190 186 190 188 191 192 185 186 180 186 182 177 173 168 164 164 165 164 159 155 154 158 147 149
241 171 246 139 283 334 270 177 199 167 190 244 243 266 279 204 222 103 295 218 206 235 229 267 277 274 274 207 230 198 188 188 195 201 200 214 218 215 212 217 229 219 208 210 212 214 211 214 217 212 210 212 208 208 200 195 200 201 189 197 195 192 192 193 194 186 195 183 189 180 184 181 176 176 170 164 166 163 164 161 158 159 155 141 154 149
138 192 236 163 258 212 238 129 195 202 195 198 191 214 209 195 229 246 256 216 244 230 238 241 254 270 269 50 131 165 189 191 199 193 200 217 222 220 223 232 225 222 224 221 216 213 216 220 218 215 205 200 193 206 203 206 201 198 199 198 194 194 197 196 190 193 189 186 186 185 182 176 171 169 167 166 167 165 163 160 158 154 148 154 152 150
174 193 220 227 226 248 266 246 211 233 326 278 212 242 209 210 197 210 250 240 257 240 261 241 266 255 250 36 53 14 194 203 180 172 189 211 224 227 228 223 224 223 222 215 217 217 216 212 208 203 201 195 196 199 204 204 205 205 202 193 195 195 201 197 193 186 182 185 185 185 177 168 170 168 169 168 170 168 163 159 153 152 151 151 151 148
114 214 204 248 276 298 287 259 135 14 259 304 269 262 175 218 209 227 239 249 259 247 231 242 245 258 273 112 249 171 155 167 190 185 214 230 231 235 238 241 239 245 245 238 226 222 220 221 215 191 193 200 200 202 204 203 203 205 203 201 197 204 203 191 185 183 181 184 184 177 170 174 169 168 172 174 173 168 163 157 154 150 148 147 146 148
298 246 215 253 266 291 292 321 285 324 67 215 235 237 236 253 255 253 268 67 260 238 251 258 255 257 277 151 206 213 229 258 257 248 219 240 255 237 238 240 239 237 240 237 229 225 219 197 188 202 206 204 205 205 204 203 201 200 200 191 196 204 197 192 184 181 184 179 177 177 177 175 172 174 175 176 170 168 160 158 152 152 151 145 147 149
227 14 84 165 218 234 252 255 245 234 206 219 232 241 243 242 241 254 253 238 250 236 240 244 258 260 269 271 263 260 256 255 265 263 253 212 236 253 251 247 242 236 234 226 229 232 221 211 209 209 206 204 206 208 206 203 204 202 202 201 195 188 185 190 185 186 180 179 177 180 180 178 176 180 178 172 169 166 162 156 155 152 150 149 147 145
202 159 174 201 207 219 225 241 239 132 122 214 228 225 235 233 243 241 248 251 245 252 243 248 258 266 267 276 276 276 271 273 280 286 291 295 284 256 236 242 238 231 224 222 221 224 225 232 224 214 207 211 213 205 203 203 204 202 200 199 190 186 182 181 182 186 184 181 182 178 183 182 183 178 174 172 166 160 158 157 154 152 153 151 148 150
149 208 212 217 222 229 233 237 247 248 245 247 251 248 230 221 229 233 232 241 245 270 260 246 258 266 266 269 271 277 280 277 274 281 287 279 274 273 245 234 246 249 242 235 242 238 229 227 225 217 215 216 219 212 209 204 203 200 200 199 188 179 178 179 182 183 184 181 183 184 184 183 176 173 171 166 160 159 157 151 151 150 144 142 148 150
185 229 224 219 230 225 229 237 242 250 245 242 238 243 250 244 235 236 239 242 238 236 249 243 250 258 258 254 263 269 273 276 283 284 278 275 283 279 272 260 241 235 231 228 232 232 228 232 227 218 220 221 218 208 205 202 200 199 203 200 188 181 185 175 174 179 182 183 187 187 180 170 170 168 165 162 158 156 156 152 148 144 141 141 139 135
178 227 228 217 235 226 228 233 236 241 247 249 244 242 245 251 250 245 248 243 235 241 248 252 247 250 253 259 259 262 270 279 283 281 279 282 280 280 278 261 244 231 225 228 231 229 227 230 229 223 224 223 214 211 206 202 199 195 195 194 190 187 178 164 178 178 182 186 188 179 171 169 166 166 164 162 161 158 152 149 146 141 138 139 136 133
197 229 204 224 234 234 228 233 235 240 243 251 251 250 249 255 258 251 248 247 253 254 250 249 249 255 257 258 257 261 265 273 281 278 275 275 278 276 275 274 247 237 224 227 232 230 230 232 231 232 230 227 217 213 209 205 202 198 194 191 190 184 177 172 174 182 183 187 180 171 165 165 169 164 168 164 155 152 149 147 143 140 137 136 136 139
198 248 235 235 238 242 225 234 233 235 234 240 246 253 254 247 247 244 241 234 235 244 247 251 256 254 252 252 259 263 268 269 269 269 271 273 272 269 270 272 252 247 244 237 234 230 229 232 232 232 231 228 221 215 209 203 196 189 198 191 187 180 168 173 177 181 184 179 168 168 168 169 164 164 164 156 156 151 147 142 142 142 141 141 140 143
186 201 216 229 245 236 224 228 235 240 242 239 231 236 241 242 240 246 248 254 245 243 247 245 245 245 253 257 263 261 259 255 255 257 263 264 264 268 272 273 263 247 247 252 246 228 225 226 227 227 229 225 220 214 210 199 190 197 195 187 185 160 169 177 179 177 175 172 169 171 170 165 163 162 158 158 151 147 144 143 141 141 144 150 144 141
195 210 225 200 244 242 220 236 230 237 226 224 198 218 223 236 239 241 241 239 241 231 237 234 247 249 252 250 251 255 256 253 250 251 248 254 267 272 275 270 260 247 243 249 250 238 229 232 233 230 227 223 220 212 208 193 194 200 188 172 154 166 172 172 176 174 174 171 172 170 166 162 161 160 157 150 146 145 145 145 148 144 140 137 144 153
204 210 234 209 244 237 229 237 240 231 237 213 207 213 221 231 238 244 246 242 245 247 248 247 248 250 253 251 247 247 249 253 256 257 258 254 248 252 261 265 263 254 260 266 268 263 249 235 231 234 235 231 224 220 197 190 195 159 147 159 165 168 167 174 170 173 173 172 171 165 163 161 160 156 152 149 147 146 146 147 142 143 148 149 155 157
212 210 225 230 229 260 231 210 245 239 48 340 216 209 214 234 238 248 256 250 248 246 249 252 245 242 242 246 248 248 249 251 257 264 268 261 254 250 252 257 264 271 270 264 261 262 261 249 235 229 231 227 217 210 187 190 170 162 169 158 163 165 169 168 171 174 172 173 170 167 165 162 160 156 155 154 154 152 147 146 150 152 151 149 147 149
222 225 213 246 191 241 229 224 241 270 273 164 157 214 189 214 208 214 240 238 227 233 233 242 244 244 243 243 245 249 252 259 265 266 265 267 266 259 258 262 264 263 264 269 268 262 257 251 235 233 226 212 200 189 196 168 158 154 147 159 165 164 166 168 175 180 178 175 171 169 167 166 162 162 161 159 157 148 150 151 151 150 147 148 154 157
217 226 218 234 215 209 241 240 251 226 237 228 211 207 214 217 219 223 230 258 203 233 224 236 242 239 241 242 244 250 255 262 265 264 258 260 262 266 266 266 260 256 255 258 264 266 259 251 239 238 217 208 200 196 164 152 151 150 156 164 162 165 173 176 187 182 178 177 174 172 170 169 165 165 165 160 157 155 154 151 143 149 154 150 151 158
221 220 226 226 236 218 230 237 231 237 244 195 224 212 220 222 231 241 251 259 161 221 211 229 237 237 238 240 246 247 249 249 249 251 256 258 262 262 265 267 247 234 236 240 246 256 256 244 232 214 193 182 200 188 156 153 151 153 168 169 172 173 176 191 187 182 183 180 172 169 168 168 166 165 151 150 158 151 151 154 152 148 143 146 141 143
234 228 232 240 243 227 252 237 244 226 255 205 221 213 219 219 230 252 263 284 156 212 214 227 238 243 240 237 241 242 237 251 264 287 308 305 299 295 300 280 269 258 250 253 255 244 241 214 127 150 179 200 212 147 153 154 160 170 170 177 167 178 191 196 193 181 168 162 164 165 166 165 163 163 165 151 123 138 139 134 134 146 145 142 131 134
217 223 213 230 230 230 224 244 247 258 254 231 216 227 226 218 204 230 246 326 359 341 340 334 335 343 354 358 7 350 349 347 333 328 345 350 354 348 342 336 302 277 267 264 266 257 191 181 182 197 209 214 139 148 154 157 161 180 178 169 177 196 203 188 160 160 163 159 159 163 165 165 165 163 163 162 157 125 126 137 140 133 131 128 131 133
279 262 271 232 229 229 229 237 238 255 306 348 300 260 184 77 246 243 8 337 350 14 5 14 2 4 6 10 354 340 314 322 332 345 348 346 343 339 342 344 344 333 321 354 6 17 12 13 305 279 263 144 150 152 163 165 180 184 174 176 198 208 166 153 163 155 155 160 161 161 163 163 161 158 153 152 144 131 135 126 118 128 123 122 132 141
310 304 303 245 260 250 239 247 240 235 20 16 340 331 25 238 38 344 321 331 340 8 8 357 8 353 6 346 347 336 331 333 332 334 331 330 337 335 336 337 335 330 324 326 320 325 7 308 284 271 261 147 148 154 169 174 187 187 182 198 212 160 150 155 154 156 155 156 159 161 161 160 158 156 155 149 149 134 135 134 128 124 126 131 131 132
305 281 282 318 11 351 313 280 239 54 313 346 36 327 342 328 337 337 329 297 328 18 5 355 350 354 351 343 336 330 327 324 320 328 329 324 323 323 324 322 322 323 321 307 285 292 200 242 262 267 279 137 150 162 164 184 195 194 197 217 152 145 146 150 153 152 155 157 158 155 156 155 153 152 148 135 140 133 130 135 128 125 132 127 126 131
196 171 287 298 304 316 265 289 293 303 338 286 48 294 288 304 313 303 294 336 349 354 0 351 337 333 338 336 327 323 319 317 313 312 317 315 313 313 311 308 304 304 304 302 294 271 224 235 251 258 255 205 178 182 181 184 196 204 219 213 144 161 157 153 152 154 159 159 157 154 149 145 147 150 151 144 143 135 132 126 131 128 134 129 138 141
324 310 314 308 276 251 253 253 274 311 319 311 303 296 307 312 318 346 27 355 343 336 339 319 320 322 315 318 312 311 305 307 307 308 306 307 307 304 301 298 293 282 275 276 277 260 234 233 233 231 244 232 182 191 196 201 196 208 225 139 155 157 158 152 154 158 158 155 153 152 147 143 145 146 143 146 138 126 140 142 144 136 140 140 144 150
277 305 298 282 296 315 279 329 298 310 311 312 307 309 321 37 7 334 317 324 317 309 309 308 297 299 300 295 294 291 292 294 294 293 294 294 295 293 292 292 292 290 284 274 259 246 217 212 223 233 231 239 206 189 198 207 215 223 119 164 155 155 152 156 157 154 154 157 155 154 157 154 156 153 147 146 138 130 126 136 133 133 138 147 148 151
288 343 302 293 291 271 282 288 292 294 280 281 292 313 333 334 319 314 310 311 315 315 306 305 308 296 291 291 293 292 290 290 288 290 291 291 291 292 290 286 285 288 284 263 255 235 218 216 228 238 234 239 233 189 197 204 216 197 158 156 157 153 154 161 168 166 166 162 162 158 161 151 150 147 147 154 149 143 142 136 142 143 156 161 162 160
294 316 276 310 292 291 285 282 274 286 311 304 297 310 309 304 310 316 323 321 319 322 320 312 305 300 301 300 296 294 291 289 288 288 287 288 288 288 288 287 285 281 278 279 260 212 217 228 232 234 230 234 224 182 194 203 202 181 168 165 160 159 162 169 166 162 161 162 158 162 169 153 160 158 143 146 128 122 149 157 156 150 139 152 149 159
282 265 281 296 289 289 290 317 351 327 308 305 301 304 306 313 310 319 332 337 339 333 331 328 330 334 331 326 324 315 307 303 305 306 302 301 298 300 300 300 297 294 291 280 274 238 233 229 229 230 229 236 212 187 200 205 197 181 171 164 166 164 167 166 163 166 169 167 168 162 159 166 165 163 147 143 140 134 114 130 138 141 146 148 160 163
261 268 277 278 284 287 303 301 296 286 285 282 296 313 326 343 4 354 336 329 327 325 330 333 327 323 319 313 310 314 313 315 313 314 311 308 304 302 299 299 300 296 292 289 287 273 247 238 230 234 240 241 207 202 208 204 191 179 175 171 172 172 170 162 164 171 171 170 175 175 172 167 162 163 149 143 135 134 134 139 153 151 144 145 156 161